FW7086 Weather Reports


Display with metric or nautical units.
time (UTC)temp
F
wind
direction
speed
MPH
gust
MPH
rain 1hr
in
rain 24hr
in
rain mn
in
humidity
%
barometer
mb
20260901112638 77 179 0.0 0.0 0.00 0.00 0.00 88 1016.2
20260901112133 77 168 0.0 1.0 0.00 0.00 0.00 88 1016.2
20260901111632 77 152 0.0 0.0 0.00 0.00 0.00 89 1016.0
20260901111131 77 134 0.0 0.0 0.00 0.00 0.00 89 1016.0
20260901110627 76 165 0.0 0.0 0.00 0.00 0.00 89 1015.8
20260901110122 77 181 0.0 0.0 0.00 0.00 0.00 89 1015.8
20260901105619 77 73 0.0 0.0 0.00 0.00 0.00 88 1015.9
20260901105117 77 224 0.0 0.0 0.00 0.00 0.00 88 1015.9
20260901104614 77 124 0.0 0.0 0.00 0.00 0.00 87 1015.8
20260901104109 77 179 0.0 0.0 0.00 0.00 0.00 87 1015.8
20260901103603 77 163 1.0 1.0 0.00 0.00 0.00 87 1015.9
20260901103059 78 173 1.0 1.0 0.00 0.00 0.00 87 1015.7
20260901102558 78 161 1.0 1.0 0.00 0.00 0.00 87 1015.6
20260901102053 78 171 1.0 1.0 0.00 0.00 0.00 87 1015.9
20260901101549 78 163 0.0 0.0 0.00 0.00 0.00 87 1015.6
20260901101048 78 189 1.0 1.0 0.00 0.00 0.00 86 1015.8
20260901100548 78 179 0.0 0.0 0.00 0.00 0.00 86 1015.9
20260901100048 78 197 1.0 1.0 0.00 0.00 0.00 86 1015.7
20260901095546 78 179 2.0 2.0 0.00 0.00 0.00 86 1015.7
20260901095044 78 162 1.0 1.0 0.00 0.00 0.00 86 1015.5
20260901094539 78 155 0.0 0.0 0.00 0.00 0.00 86 1015.5
20260901094038 78 66 1.0 2.0 0.00 0.00 0.00 86 1015.7
20260901093533 78 193 0.0 1.0 0.00 0.00 0.00 85 1015.7
20260901093028 78 191 2.0 2.0 0.00 0.00 0.00 85 1015.7
20260901092524 78 239 0.0 0.0 0.00 0.00 0.00 86 1015.7
20260901092021 78 167 0.0 0.0 0.00 0.00 0.00 86 1015.5
20260901091516 78 225 0.0 0.0 0.00 0.00 0.00 86 1015.5
20260901091015 78 179 0.0 0.0 0.00 0.00 0.00 85 1015.3
20260901090515 78 281 0.0 0.0 0.00 0.00 0.00 85 1015.3
20260901090011 78 231 1.0 2.0 0.00 0.00 0.00 84 1015.5
20260901085506 79 126 2.0 2.0 0.00 0.00 0.00 84 1015.4
20260901085002 79 155 3.0 3.0 0.00 0.00 0.00 84 1015.3
20260901084458 79 172 1.0 1.0 0.00 0.00 0.00 84 1015.3
20260901083955 79 175 2.0 2.0 0.00 0.00 0.00 84 1015.3
20260901083454 79 235 0.0 1.0 0.00 0.00 0.00 83 1015.4
20260901082952 79 178 2.0 3.0 0.00 0.00 0.00 83 1015.3
20260901082447 79 180 1.0 1.0 0.00 0.00 0.00 83 1015.4
20260901081942 79 245 2.0 4.0 0.00 0.00 0.00 83 1015.1
20260901081437 79 196 1.0 2.0 0.00 0.00 0.00 83 1015.5
20260901080933 79 114 1.0 2.0 0.00 0.00 0.00 82 1015.0
20260901080432 79 215 3.0 3.0 0.00 0.00 0.00 82 1015.4
20260901075932 80 183 1.0 1.0 0.00 0.00 0.00 82 1015.4
20260901075427 80 235 3.0 3.0 0.00 0.00 0.00 82 1015.2
20260901074921 80 142 3.0 6.0 0.00 0.00 0.00 82 1015.3
20260901074416 80 189 1.0 2.0 0.00 0.00 0.00 81 1015.3
20260901073912 80 150 2.0 2.0 0.00 0.00 0.00 81 1015.3
20260901073408 80 143 1.0 2.0 0.00 0.00 0.00 81 1015.0
20260901072903 80 208 1.0 1.0 0.00 0.00 0.00 81 1015.4
20260901072403 80 125 3.0 3.0 0.00 0.00 0.00 81 1015.2
20260901071858 80 205 3.0 4.0 0.00 0.00 0.00 81 1015.4
20260901071356 80 167 3.0 3.0 0.00 0.00 0.00 81 1015.1
20260901070855 80 210 0.0 0.0 0.00 0.00 0.00 81 1015.2
20260901070352 80 226 0.0 0.0 0.00 0.00 0.00 81 1015.2
20260901065850 80 181 2.0 2.0 0.00 0.00 0.00 81 1015.3
20260901065346 80 136 0.0 0.0 0.00 0.00 0.00 82 1015.3
20260901064841 79 20 0.0 1.0 0.00 0.00 0.00 82 1015.0
20260901064337 79 151 0.0 0.0 0.00 0.00 0.00 83 1015.1
20260901063835 79 291 0.0 0.0 0.00 0.00 0.00 83 1015.2
20260901063331 80 170 0.0 0.0 0.00 0.00 0.00 82 1015.0
20260901062826 80 168 1.0 1.0 0.00 0.00 0.00 81 1015.3
20260901062322 80 162 0.0 0.0 0.00 0.00 0.00 81 1015.1
20260901061818 80 183 1.0 1.0 0.00 0.00 0.00 82 1015.1
20260901061313 80 228 2.0 3.0 0.00 0.00 0.00 82 1015.0
20260901060808 80 194 1.0 1.0 0.00 0.00 0.00 83 1015.1
20260901060304 80 158 0.0 0.0 0.00 0.00 0.00 82 1015.1
20260901055758 80 175 0.0 0.0 0.00 0.00 0.00 82 1015.0
20260901055255 80 145 0.0 0.0 0.00 0.00 0.00 82 1015.3
20260901054751 80 133 0.0 1.0 0.00 0.00 0.00 82 1015.3
20260901054248 80 141 0.0 1.0 0.00 0.00 0.00 81 1015.2
20260901053743 81 160 0.0 0.0 0.00 0.00 0.00 81 1015.2
20260901053243 81 173 1.0 1.0 0.00 0.00 0.00 81 1015.2
20260901052739 81 160 1.0 1.0 0.00 0.00 0.00 81 1015.3
20260901052235 81 197 2.0 2.0 0.00 0.00 0.00 81 1015.1
20260901051733 81 130 1.0 2.0 0.00 0.00 0.00 81 1015.3
20260901051228 80 163 2.0 3.0 0.00 0.00 0.00 82 1015.2
20260901050724 81 195 1.0 1.0 0.00 0.00 0.00 82 1015.0
20260901050219 81 192 1.0 1.0 0.00 0.00 0.00 82 1015.1
20260901045714 81 204 3.0 3.0 0.00 0.25 0.25 82 1015.0
20260901045209 80 189 3.0 3.0 0.00 0.25 0.25 83 1015.0
20260901044704 80 171 1.0 2.0 0.00 0.25 0.25 83 1015.2
20260901044200 80 158 1.0 1.0 0.00 0.25 0.25 83 1015.2
20260901043656 80 168 2.0 2.0 0.00 0.25 0.25 83 1015.2
20260901043151 80 212 2.0 3.0 0.00 0.25 0.25 84 1015.3
20260901042650 80 187 0.0 1.0 0.00 0.25 0.25 86 1015.0
20260901042145 80 169 2.0 2.0 0.00 0.25 0.25 85 1015.3
20260901041641 80 171 3.0 3.0 0.00 0.25 0.25 85 1015.3
20260901041136 79 104 2.0 3.0 0.00 0.25 0.25 87 1015.2
20260901040636 78 170 1.0 2.0 0.00 0.25 0.25 91 1015.2
20260901040135 77 160 0.0 0.0 0.00 0.25 0.25 93 1015.4
20260901035634 77 160 0.0 0.0 0.00 0.25 0.25 93 1015.5
20260901035133 78 160 0.0 0.0 0.00 0.25 0.25 93 1015.2
20260901034632 78 2 0.0 0.0 0.00 0.25 0.25 92 1015.5
20260901034127 78 1 0.0 0.0 0.00 0.25 0.25 91 1015.4
20260901033621 78 1 0.0 0.0 0.00 0.25 0.25 90 1015.4
20260901033120 79 2 0.0 1.0 0.00 0.25 0.25 89 1015.4
20260901032619 79 73 0.0 0.0 0.00 0.25 0.25 88 1015.2
20260901032114 80 141 0.0 0.0 0.00 0.25 0.25 88 1015.3
20260901031609 80 151 0.0 0.0 0.00 0.25 0.25 87 1015.3
20260901031105 80 169 0.0 0.0 0.00 0.25 0.25 87 1015.3
20260901030605 80 149 2.0 2.0 0.00 0.25 0.25 87 1015.1
20260901030100 81 178 0.0 0.0 0.00 0.25 0.25 87 1015.3
20260901025559 80 152 2.0 2.0 0.00 0.25 0.25 87 1015.3
20260901025054 80 172 2.0 3.0 0.00 0.25 0.25 88 1015.2
20260901024549 80 171 2.0 2.0 0.00 0.25 0.25 89 1015.4
20260901024048 79 159 1.0 1.0 0.00 0.25 0.25 91 1015.7
20260901023546 79 92 0.0 0.0 0.00 0.25 0.25 92 1015.8
20260901023042 79 28 0.0 0.0 0.00 0.25 0.25 91 1015.8
20260901022537 79 31 0.0 0.0 0.00 0.25 0.25 91 1015.8
20260901022032 79 31 0.0 0.0 0.00 0.25 0.25 90 1015.6
20260901021528 80 169 0.0 0.0 0.00 0.25 0.25 89 1015.4
20260901021023 80 164 2.0 2.0 0.00 0.25 0.25 89 1015.6
20260901020519 80 250 0.0 0.0 0.00 0.25 0.25 90 1015.8
20260901020014 80 290 0.0 0.0 0.00 0.25 0.25 89 1015.8
20260901015509 80 290 0.0 0.0 0.00 0.25 0.25 88 1015.7
20260901015008 80 212 0.0 0.0 0.00 0.25 0.25 88 1015.8
20260901014504 81 143 0.0 0.0 0.00 0.25 0.25 87 1015.6
20260901014000 81 143 0.0 0.0 0.00 0.25 0.25 86 1015.6
20260901013455 81 185 0.0 0.0 0.00 0.25 0.25 86 1015.4
20260901012951 82 158 1.0 1.0 0.00 0.25 0.25 85 1015.5
20260901012450 82 168 0.0 0.0 0.00 0.25 0.25 85 1015.3
20260901011946 82 156 0.0 0.0 0.00 0.25 0.25 85 1015.3
20260901011442 82 160 0.0 0.0 0.00 0.25 0.25 85 1015.1
20260901010940 82 164 0.0 1.0 0.00 0.25 0.25 84 1015.1
20260901010435 82 230 1.0 2.0 0.00 0.25 0.25 83 1015.2
20260901005934 82 177 2.0 3.0 0.00 0.25 0.25 84 1015.1
20260901005429 82 190 1.0 2.0 0.00 0.25 0.25 84 1015.2
20260901004925 82 121 0.0 0.0 0.00 0.25 0.25 85 1015.3
20260901004424 81 162 0.0 1.0 0.00 0.25 0.25 87 1015.5
20260901003919 80 169 0.0 0.0 0.00 0.25 0.25 89 1015.3
20260901003414 80 159 0.0 0.0 0.00 0.25 0.25 90 1015.4
20260901002913 80 323 0.0 0.0 0.00 0.25 0.25 91 1015.3
20260901002412 80 299 0.0 0.0 0.00 0.25 0.25 90 1015.2
20260901001907 80 290 0.0 0.0 0.00 0.25 0.25 90 1015.1
20260901001402 80 290 0.0 0.0 0.00 0.25 0.25 90 1015.0
20260901000857 80 290 0.0 0.0 0.00 0.25 0.25 90 1014.8
20260901000352 80 233 0.0 0.0 0.00 0.25 0.25 90 1014.9
20260831235851 80 85 0.0 0.0 0.00 0.25 0.25 90 1014.4
20260831235347 80 85 0.0 0.0 0.00 0.25 0.25 90 1014.4
20260831234842 80 84 0.0 0.0 0.00 0.25 0.25 90 1014.8
20260831234342 80 85 0.0 0.0 0.00 0.25 0.25 89 1014.7
20260831233837 80 84 0.0 0.0 0.00 0.25 0.25 89 1015.2
20260831233332 80 84 0.0 0.0 0.00 0.25 0.25 88 1015.3
20260831232828 81 174 0.0 0.0 0.00 0.25 0.25 87 1015.5
20260831232324 82 158 0.0 0.0 0.00 0.25 0.25 85 1015.5
20260831231820 82 157 0.0 0.0 0.00 0.25 0.25 83 1015.2
20260831231316 83 176 2.0 3.0 0.00 0.25 0.25 79 1015.0
20260831230811 83 188 4.0 6.0 0.00 0.25 0.25 78 1014.9
20260831230306 84 139 1.0 1.0 0.00 0.25 0.25 80 1015.1
20260831225806 83 116 4.0 4.0 0.00 0.25 0.25 78 1014.7
20260831225301 81 174 2.0 3.0 0.00 0.25 0.25 88 1014.8
20260831224756 80 166 1.0 2.0 0.00 0.25 0.25 93 1014.8
20260831224251 79 161 0.0 0.0 0.07 0.25 0.25 94 1015.0
20260831223746 79 51 0.0 0.0 0.07 0.25 0.25 93 1015.0
20260831223242 80 350 0.0 0.0 0.42 0.24 0.24 93 1015.2
20260831222738 80 346 0.0 0.0 0.42 0.24 0.24 91 1014.9
20260831222234 81 250 0.0 0.0 0.17 0.17 0.17 88 1015.3
20260831221729 82 160 0.0 0.0 0.17 0.17 0.17 85 1015.3
20260831221224 84 124 0.0 0.0 0.07 0.14 0.14 81 1015.3
20260831220719 85 273 1.0 1.0 0.07 0.14 0.14 76 1015.3
20260831220214 85 306 1.0 1.0 0.00 0.13 0.13 73 1014.9
20260831215709 84 166 0.0 1.0 0.00 0.13 0.13 76 1014.5
20260831215205 86 101 0.0 0.0 0.00 0.13 0.13 75 1014.9
20260831214702 86 25 0.0 1.0 0.00 0.13 0.13 68 1015.0
20260831214159 87 17 0.0 1.0 0.00 0.13 0.13 67 1015.0
20260831213654 87 237 2.0 2.0 0.00 0.13 0.13 65 1014.2
20260831213150 87 152 5.0 7.0 0.00 0.13 0.13 64 1014.2
20260831212645 87 167 6.0 9.0 0.00 0.13 0.13 64 1014.1
20260831212142 88 204 2.0 3.0 0.00 0.13 0.13 64 1014.3
20260831211641 87 177 5.0 8.0 0.00 0.13 0.13 64 1014.6
20260831211141 88 181 2.0 6.0 0.00 0.13 0.13 64 1014.5
20260831210636 87 175 4.0 4.0 0.00 0.13 0.13 65 1014.8
20260831210132 87 187 3.0 3.0 0.00 0.13 0.13 66 1014.9
20260831205631 87 256 0.0 1.0 0.00 0.13 0.13 66 1015.3
20260831205127 87 204 0.0 0.0 0.00 0.13 0.13 70 1015.4
20260831204627 87 355 1.0 1.0 0.00 0.13 0.13 66 1015.2
20260831204125 86 174 1.0 1.0 0.00 0.13 0.13 67 1015.2
20260831203620 86 331 1.0 1.0 0.00 0.13 0.13 66 1015.3
20260831203120 87 292 1.0 2.0 0.00 0.13 0.13 65 1015.4
20260831202619 87 266 3.0 4.0 0.00 0.13 0.13 63 1015.3
20260831202119 87 268 4.0 6.0 0.00 0.13 0.13 63 1015.2
20260831201618 88 212 5.0 7.0 0.00 0.13 0.13 62 1014.9
20260831201114 88 198 7.0 13.0 0.00 0.13 0.13 62 1014.7
20260831200610 86 166 5.0 8.0 0.00 0.13 0.13 64 1014.4
20260831200109 85 165 4.0 6.0 0.00 0.13 0.13 66 1014.8
20260831195605 84 195 1.0 3.0 0.12 0.13 0.13 70 1014.7
20260831195100 84 195 4.0 4.0 0.12 0.13 0.13 72 1014.2
20260831194555 85 155 1.0 1.0 0.00 0.11 0.11 70 1014.5
20260831194049 86 267 2.0 2.0 0.05 0.11 0.11 65 1014.9
20260831193545 86 166 2.0 3.0 0.05 0.11 0.11 65 1015.3
20260831193045 85 241 3.0 6.0 0.00 0.10 0.10 64 1015.0
20260831192540 84 161 4.0 4.0 0.00 0.10 0.10 65 1014.6
20260831192035 85 161 9.0 13.0 0.00 0.10 0.10 66 1014.7
20260831191531 85 140 4.0 6.0 0.00 0.10 0.10 66 1015.0
20260831191027 86 218 6.0 8.0 0.00 0.10 0.10 61 1015.5
20260831190522 86 150 4.0 4.0 0.00 0.10 0.10 63 1015.2
20260831190021 87 149 8.0 11.0 0.00 0.10 0.10 61 1014.6
20260831185517 87 230 2.0 3.0 0.00 0.10 0.10 60 1015.0
20260831185012 87 175 4.0 6.0 0.00 0.10 0.10 60 1015.3
20260831184506 88 112 6.0 8.0 0.00 0.10 0.10 59 1015.2
20260831184002 88 177 3.0 6.0 0.00 0.10 0.10 59 1015.1
20260831183501 88 191 6.0 7.0 0.00 0.10 0.10 59 1015.1
20260831183000 87 235 7.0 8.0 0.00 0.10 0.10 60 1015.0
20260831182455 87 202 6.0 10.0 0.00 0.10 0.10 61 1015.1
20260831181951 87 200 6.0 10.0 0.00 0.10 0.10 61 1014.9
20260831181446 87 172 8.0 10.0 0.00 0.10 0.10 61 1014.8
20260831180941 86 163 9.0 10.0 0.00 0.10 0.10 61 1015.0
20260831180441 85 180 4.0 7.0 0.00 0.10 0.10 64 1015.2
20260831175940 85 180 4.0 6.0 0.00 0.10 0.10 65 1015.4
20260831175437 84 183 8.0 11.0 0.00 0.10 0.10 65 1015.3
20260831174932 84 245 3.0 4.0 0.00 0.10 0.10 66 1015.2
20260831174428 83 163 6.0 8.0 0.00 0.10 0.10 68 1015.5
20260831173927 82 159 8.0 13.0 0.00 0.10 0.10 68 1015.5
20260831173426 81 162 5.0 7.0 0.00 0.10 0.10 71 1015.5
20260831172922 81 137 3.0 4.0 0.00 0.10 0.10 72 1015.5
20260831172418 81 177 10.0 13.0 0.00 0.10 0.10 72 1015.8
20260831171918 80 181 2.0 2.0 0.00 0.10 0.10 77 1015.8
20260831171414 79 220 4.0 6.0 0.00 0.10 0.10 78 1016.0
20260831170910 78 201 7.0 9.0 0.00 0.10 0.10 77 1016.1
20260831170406 78 179 10.0 11.0 0.00 0.10 0.10 78 1016.1
20260831165902 77 164 4.0 7.0 0.00 0.10 0.10 79 1016.2
20260831165358 77 167 4.0 4.0 0.00 0.10 0.10 80 1016.2
20260831164855 77 179 6.0 8.0 0.00 0.10 0.10 80 1016.4
20260831164351 76 164 1.0 1.0 0.00 0.10 0.10 81 1016.2
20260831163846 76 146 2.0 3.0 0.00 0.10 0.10 82 1016.4
20260831163341 75 151 2.0 2.0 0.00 0.10 0.10 82 1016.5
20260831162839 75 215 4.0 6.0 0.00 0.10 0.10 83 1016.5
20260831162335 75 195 7.0 9.0 0.00 0.10 0.10 83 1016.7
20260831161834 75 185 1.0 1.0 0.00 0.10 0.10 85 1016.7
20260831161330 75 216 5.0 6.0 0.00 0.10 0.10 84 1016.9
20260831160826 75 211 5.0 7.0 0.00 0.10 0.10 85 1016.8
20260831160325 74 153 4.0 6.0 0.00 0.10 0.10 87 1016.8
20260831155821 73 155 3.0 3.0 0.00 0.10 0.10 88 1016.7
20260831155320 73 163 2.0 2.0 0.00 0.10 0.10 89 1016.5
20260831154816 73 102 6.0 8.0 0.00 0.10 0.10 89 1016.7
20260831154313 73 198 3.0 4.0 0.00 0.10 0.10 90 1016.8
20260831153811 72 185 3.0 4.0 0.00 0.10 0.10 92 1016.8
20260831153307 71 173 2.0 3.0 0.00 0.10 0.10 93 1017.0
20260831152803 71 126 1.0 2.0 0.00 0.10 0.10 93 1017.0
20260831152258 71 181 4.0 6.0 0.07 0.10 0.10 92 1017.2
20260831151753 71 100 0.0 0.0 0.14 0.10 0.10 92 1017.3
20260831151252 72 166 2.0 2.0 0.07 0.09 0.09 91 1017.3
20260831150748 72 199 0.0 2.0 0.00 0.08 0.08 89 1017.3
20260831150243 72 137 6.0 8.0 0.00 0.08 0.08 89 1017.3
20260831145742 72 151 2.0 3.0 0.00 0.08 0.08 90 1016.9
20260831145239 72 156 3.0 6.0 0.00 0.08 0.08 90 1017.0
20260831144734 72 135 2.0 2.0 0.00 0.08 0.08 90 1017.0
20260831144230 72 145 1.0 2.0 0.00 0.08 0.08 91 1017.2
20260831143730 72 159 1.0 2.0 0.00 0.08 0.08 92 1017.0
20260831143225 72 198 2.0 3.0 0.00 0.08 0.08 92 1017.2
20260831142721 71 80 1.0 2.0 0.00 0.08 0.08 92 1017.3
20260831142216 72 175 2.0 3.0 0.00 0.08 0.08 92 1017.3
20260831141715 71 82 0.0 0.0 0.00 0.08 0.08 92 1017.2
20260831141210 71 182 2.0 3.0 0.00 0.08 0.08 93 1017.3
20260831140710 71 38 0.0 0.0 0.00 0.08 0.08 94 1017.5
20260831140205 71 157 0.0 0.0 0.00 0.08 0.08 94 1017.6
20260831135703 70 104 0.0 0.0 0.00 0.08 0.08 95 1017.4
20260831135158 70 94 0.0 0.0 0.05 0.08 0.08 95 1017.6
20260831134654 70 179 0.0 0.0 0.05 0.08 0.08 95 1017.5
20260831134150 70 120 0.0 1.0 0.00 0.07 0.07 94 1017.8
20260831133649 71 95 0.0 0.0 0.00 0.07 0.07 93 1017.8
20260831133143 70 78 0.0 0.0 0.00 0.07 0.07 93 1017.8
20260831132640 70 61 2.0 3.0 0.00 0.07 0.07 94 1017.7
20260831132138 70 108 0.0 0.0 0.07 0.07 0.07 94 1017.9
20260831131633 70 138 0.0 0.0 0.19 0.07 0.07 94 1017.7
20260831131130 71 177 0.0 0.0 0.19 0.07 0.07 93 1017.7
20260831130625 71 75 0.0 0.0 0.05 0.04 0.04 93 1018.0
20260831130121 71 164 0.0 0.0 0.05 0.04 0.04 92 1017.9
20260831125619 71 151 0.0 0.0 0.00 0.03 0.03 91 1017.9
20260831125115 71 146 0.0 0.0 0.07 0.03 0.03 91 1017.5
20260831124611 71 157 0.0 0.0 0.07 0.03 0.03 90 1017.7
20260831124106 71 105 0.0 0.0 0.00 0.02 0.02 90 1017.5
20260831123606 71 3 0.0 0.0 0.00 0.02 0.02 89 1017.8
20260831123105 71 34 0.0 0.0 0.00 0.02 0.02 89 1017.4
20260831122600 71 81 0.0 0.0 0.00 0.02 0.02 89 1017.4
20260831122056 71 25 0.0 0.0 0.00 0.02 0.02 89 1017.1
20260831121555 71 88 0.0 0.0 0.00 0.02 0.02 89 1017.1
20260831121052 71 32 0.0 0.0 0.00 0.02 0.02 88 1017.0
20260831120551 72 165 0.0 0.0 0.00 0.02 0.02 86 1016.9
20260831120047 71 140 0.0 0.0 0.00 0.02 0.02 85 1016.7
20260831115542 71 5 0.0 0.0 0.00 0.02 0.02 87 1017.0
20260831115037 71 14 1.0 2.0 0.00 0.02 0.02 89 1016.8
20260831114537 71 28 1.0 1.0 0.00 0.02 0.02 87 1016.5
20260831114036 73 67 0.0 0.0 0.00 0.02 0.02 84 1016.3
20260831113536 73 19 0.0 0.0 0.12 0.02 0.02 80 1016.1
20260831113032 75 211 3.0 3.0 0.12 0.02 0.02 78 1016.0